TIME,DELAY(SENSOR),PRES,OXYGEN,RAWTEMP,T(OPTODE),TCPHASE,FLUOR,BETA(BETA700),BETA(BETA412),BETA(BETA440),CDOM,C(CSC),ED(ED411.90),ED(ED443.80),ED(ED489.40),ED(ED554.70),LU(LU412.20),LU(LU443.80),LU(LU489.40),LU(LU555.00),COMP,TILTX,TILTY,CHECK
1374618282,5805,868.5499877929688000,134.8493041992187500,451.9475097656250000,9.0130367279052730,41.8929405212402340,57,246,67,69,72,9775,2146961362,2147516690,2147293796,2147505280,2147085476,2146933915,2147705508,2147121307,964,-1,8,35825
1374621878,5807,978.9600219726562000,172.3298034667968800,517.9224853515625000,6.9723711013793945,40.0470314025878900,57,248,67,68,72,9791,2146962276,2147517238,2147297106,2147515309,2147087570,2146913581,2147723739,2147120914,800,-1,8,41830
1374625478,5805,998.5300292968750000,168.4483947753906200,526.9746093750000000,6.6901259422302250,40.4832305908203100,57,246,68,67,73,9793,2146964416,2147521243,2147300873,2147516644,2147087972,2146922093,2147719670,2147122358,3253,-1,8,20655
1374629078,5806,999.7299804687500000,155.8726043701172000,529.8663940429688000,6.5998339653015140,41.4749488830566400,57,247,67,67,72,9793,2146963081,2147519972,2147299465,2147516745,2147088713,2146922048,2147721828,2147121618,2773,-1,8,34192
1374632678,5807,1004.7500000000000000,173.1315002441406200,531.0175781250000000,6.5638728141784670,40.2211799621582000,56,249,67,67,73,9792,2146963062,2147521298,2147301632,2147519872,2147087332,2146917440,2147719433,2147122377,111,0,8,10960
1374636278,5808,1000.9299926757812000,164.2351989746093800,531.5197143554688000,6.5481829643249510,40.8723602294921900,58,251,68,67,73,9788,2146963995,2147520795,2147299766,2147518829,2147087414,2146918107,2147724224,2147119817,399,-1,8,16116
1374639878,5809,1003.9699707031250000,143.1549987792968800,533.2161254882812000,6.4951691627502440,42.5464706420898440,58,251,68,67,73,9786,2146961124,2147520000,2147302546,2147517549,2147086601,2146921353,2147721728,2147119899,203,-1,8,60926
1374643478,5803,1007.6199951171875000,188.6302947998047000,533.2559814453125000,6.4939188957214355,39.2087593078613300,58,250,68,68,73,9788,2146963355,2147520329,2147303122,2147519350,2147089764,2146919140,2147721298,2147119890,3149,0,8,37484
1374647078,5804,1009.6400146484375000,138.6667938232422000,533.1132202148438000,6.4983839988708500,42.9170608520507800,57,252,69,68,72,9786,2146958134,2147517778,2147301138,2147513499,2147087442,2146917677,2147723958,2147117824,3493,-1,8,17078
1374650678,5807,1011.0900268554688000,194.6349945068359400,533.0678710937500000,6.4998002052307130,38.8196601867675800,58,251,69,69,73,9766,2146962084,2147522166,2147299108,2147516388,2147090166,2146924461,2147718134,2147117028,2324,-1,8,32421
1374654278,5807,1012.7500000000000000,178.6428070068359400,533.0689086914062000,6.4997692108154300,39.8749694824218750,58,252,68,69,73,9765,2146959323,2147520338,2147300644,2147518162,2147088009,2146922112,2147721188,2147121344,476,0,8,21035
1374657878,5805,1014.9299926757812000,203.6797027587890600,533.0228271484375000,6.5012111663818360,38.2581214904785160,58,253,68,66,72,9764,2146960905,2147518765,2147302061,2147515017,2147089974,2146920365,2147721746,2147118262,2836,-1,8,29137
1374661478,5807,1016.7399902343750000,199.8880004882812500,533.2540893554688000,6.4939799308776855,38.4942703247070300,57,253,68,66,72,9758,2146960438,2147519826,2147299693,2147515840,2147089142,2146917467,2147716854,2147117330,3248,-1,8,4872
1374665078,5806,1020.3099975585938000,196.8417968750000000,531.2241210937500000,6.5574212074279785,38.6476211547851560,58,255,67,67,71,9765,2146960475,2147517056,2147299117,2147517851,2147087771,2146920996,2147723099,2147120521,2019,-1,8,40006
1374668678,5804,1014.8200073242188000,200.6965942382812500,533.2031860351562000,6.4955692291259770,38.4433784484863300,58,256,68,68,73,9763,2146962276,2147518848,2147300141,2147518290,2147086061,2146924690,2147722102,2147118985,3135,-1,8,9064
1374672278,5808,1013.6099853515625000,192.0422973632812500,533.4572143554688000,6.4876308441162110,38.9920692443847660,57,260,69,67,74,9765,2146958134,2147520118,2147302180,2147519561,2147086994,2146922176,2147724434,2147122678,312,-1,8,61603
1374675878,5804,1014.3200073242188000,159.0760955810547000,534.5167236328125000,6.4545078277587890,41.3112411499023440,57,258,68,68,73,9760,2146962797,2147519606,2147303862,2147520073,2147089188,2146920466,2147722614,2147119506,3544,-1,8,44483
1374679478,5806,1016.1300048828125000,179.3632965087890600,534.3817749023438000,6.4587249755859375,39.8488807678222660,58,257,68,68,72,9763,2146961344,2147520832,2147299894,2147519606,2147086281,2146920630,2147723446,2147122075,238,-1,8,43340
1374683078,5805,1016.1300048828125000,166.2440948486328000,534.5775756835938000,6.4526019096374510,40.7789688110351560,57,257,67,68,72,9764,2146962816,2147521718,2147300800,2147518582,2147086802,2146915081,2147722550,2147116205,3188,-1,8,14062
1374686678,5807,1021.5599975585938000,190.0973052978515600,533.3571777343750000,6.4907550811767580,39.1157417297363300,57,258,69,68,72,9763,2146961435,2147515657,2147303670,2147517458,2147087789,2146922651,2147722130,2147118646,135,-1,8,46495
1374690278,5805,1019.8200073242188000,194.1712951660156200,533.4683837890625000,6.4872798919677730,38.8568000793457000,57,258,69,67,73,9764,2146958811,2147519341,2147301915,2147522038,2147087616,2146915227,2147720475,2147117979,3268,-1,8,36062
1374693878,5805,1018.5399780273438000,196.1141052246093800,534.3090820312500000,6.4609951972961430,38.7484817504882800,58,261,68,67,73,9764,2146964096,2147520832,2147300553,2147519323,2147086884,2146917970,2147723172,2147117476,114,-1,8,30989
1374697478,5808,1019.4500122070312000,195.9293975830078000,534.0598144531250000,6.4687938690185550,38.7557106018066400,57,262,68,68,73,9759,2146964205,2147517796,2147302107,2147519689,2147084050,2146921526,2147716626,2147120996,77,-1,8,13481
1374701078,5805,1019.4799804687500000,191.3632965087890600,533.9163818359375000,6.4732761383056640,39.0439796447753900,58,260,68,67,72,9762,2146963995,2147518189,2147304694,2147519104,2147085824,2146917650,2147724050,2147119204,3545,-1,8,2825
1374704678,5805,1020.9500122070312000,204.4136047363281200,533.7971191406250000,6.4770069122314450,38.2276687622070300,58,259,68,68,72,9760,2146962157,2147519734,2147306761,2147515492,2147088429,2146919259,2147724882,2147121517,3185,-1,8,56095
1374708278,5805,1026.9499511718750000,205.8403015136718800,533.5291137695312000,6.4853839874267580,38.1372489929199200,58,261,67,69,73,9728,2146961206,2147522157,2147303634,2147518948,2147088329,2146919286,2147722203,2147120896,3553,-1,8,64332
1374711878,5808,1023.7000122070312000,192.5644989013672000,533.4202880859375000,6.4887847900390625,38.9573211669921900,57,262,68,68,73,9727,2146960118,2147519881,2147301769,2147517211,2147088018,2146917558,2147721965,2147120347,307,-1,8,41526
1374715478,5806,1026.1099853515625000,211.5736999511718800,532.8416137695312000,6.5068740844726560,37.7850494384765600,58,259,69,68,72,9729,2146960512,2147519533,2147303552,2147514075,2147088777,2146923565,2147723931,2147120082,1343,-1,8,63542
1374719078,5802,1022.4500122070312000,189.5157012939453000,534.6021728515625000,6.4518299102783200,39.1762504577636700,57,261,69,67,72,9725,2146964068,2147520365,2147299090,2147519204,2147088493,2146916205,2147718701,2147120054,3037,-1,8,33529
1374722678,5805,1022.5000000000000000,194.1658935546875000,533.7047119140625000,6.4798951148986820,38.8611183166503900,56,263,68,68,72,9723,2146962733,2147520566,2147303506,2147519853,2147090121,2146915547,2147718866,2147119405,122,-1,8,55396
1374726278,5804,1020.7700195312500000,191.5588989257812500,534.4174804687500000,6.4576048851013180,39.0404701232910160,58,264,69,68,73,9725,2146959122,2147517421,2147304082,2147518582,2147087972,2146920822,2147725165,2147117366,3506,-1,8,64188
1374729878,5809,1021.0000000000000000,198.6537933349609400,535.1970825195312000,6.4332280158996580,38.6063308715820300,57,261,68,67,71,9726,2146960722,2147517531,2147305673,2147518820,2147087588,2146923355,2147723062,2147119204,71,0,8,14754
1374733478,5805,1025.3199462890625000,211.4123992919922000,534.6604003906250000,6.4500122070312500,37.8272895812988300,58,262,68,68,72,9711,2146962285,2147518966,2147301851,2147517257,2147088045,2146920073,2147724589,2147122176,551,-1,8,65021
1374737078,5805,1022.4299926757812000,206.4934997558593800,534.9149169921875000,6.4420528411865230,38.1228981018066400,57,265,69,67,72,9712,2146962870,2147518226,2147302345,2147514185,2147088265,2146920658,2147725357,2147121782,3100,-1,8,37405
1374740678,5804,1022.5900268554688000,195.8750000000000000,534.9005126953125000,6.4425067901611330,38.7736396789550800,58,264,68,67,72,9710,2146961316,2147518793,2147302528,2147520027,2147090477,2146916160,2147721014,2147118710,2929,-1,8,43691
1374744278,5807,1025.6600341796875000,210.9214935302734400,533.6077270507812000,6.4829249382019040,37.8379096984863300,57,264,70,68,73,9706,2146963821,2147517915,2147304987,2147518656,2147085851,2146918802,2147724452,2147119616,3294,-1,8,30079
1374747878,5806,1025.9599609375000000,207.5231933593750000,533.8336791992188000,6.4758591651916500,38.0421295166015600,58,265,68,68,73,9708,2146962825,2147515492,2147303698,2147517942,2147086125,2146918692,2147723803,2147119862,22,0,8,56077
1374751478,5804,1023.5599975585938000,204.2781982421875000,534.4849853515625000,6.4554958343505860,38.2485694885253900,58,266,68,68,73,9707,2146962560,2147517641,2147301906,2147518921,2147087040,2146916452,2147724141,2147118198,330,-1,8,31636
1374755078,5804,1027.3199462890625000,195.8728027343750000,534.4458007812500000,6.4567217826843260,38.7665710449218750,58,267,68,69,73,9708,2146961627,2147518729,2147301357,2147519533,2147086939,2146923556,2147724534,2147119177,3203,-1,8,29238
1374758678,5806,1027.2399902343750000,197.7507019042968800,534.5844726562500000,6.4523868560791020,38.6512908935546900,57,269,69,67,72,9707,2146963254,2147523136,2147298194,2147520557,2147087670,2146918098,2147722514,2147118281,3338,-1,8,5324
1374760856,5805,1025.0000000000000000,197.6490936279297000,534.4033203125000000,6.4580497741699220,38.6544609069824200,58,267,69,68,72,9747,2146962011,2147520804,2147302509,2147518756,2147084086,2146920996,2147722980,2147117586,3202,-1,8,43353
